Zurück zum Katalog

STARLINK-4352

AktivKommunikationSSO
NORAD 53047·PAYLOAD·🇺🇸 United States

Gestartet Jul 11, 2022 von Vandenberg Space Force Base

Loading…

Nächste Überflüge (nächste 24 Stunden)

TLE

AktuellSource: CelesTrak SupGP

Epoche: Sep 14, 2026, 21:41 UTC

1 53047C 22077E   26257.90395833  .00050240  00000+0  15593-2 0  2571
2 53047  97.2854  72.8213 0001300  95.9582 220.1584 15.33419355    13

Verfolge STARLINK-4352 in Echtzeit mit AllMySat

Download on the App Store